Minot AFB, ND

4:22 PM CDT on October 21, 2019 (GMT -0500)
Minot Air Force Base

Weather History for KMIB - August, 2019

Change the Weather History Date:

Friday, August 9, 2019

  Actual Average Record
Temperature  
Mean Temperature 66 °F -  
Max Temperature 81 °F 79 °F 92 °F (2007)
Min Temperature 51 °F 54 °F 42 °F (1997)
Growing Degree Days 16 (Base 50)    
Moisture  
Dew Point 56 °F    
Average Humidity 75    
Maximum Humidity 92    
Minimum Humidity 53    
Precipitation  
Precipitation 0.00 in - - ()
Sea Level Pressure  
Sea Level Pressure 29.91 in    
Wind  
Wind Speed 2 mph (South)    
Max Wind Speed 9 mph    
Max Gust Speed -    
Visibility 10 miles    
Events      
Averages and records for this station are not official NWS values.
T = Trace of Precipitation, MM = Missing Value Source: NWS Daily Summary

Daily Weather History Graph

Daily Weather History Graph

Search for Another Location

Airport or City:

Astronomy

Aug. 09, 2019 Rise Set
Actual Time 6:30 AM CDT 9:10 PM CDT
Civil Twilight 5:55 AM CDT 9:45 PM CDT
Nautical Twilight 5:09 AM CDT 10:30 PM CDT
Astronomical Twilight 4:16 AM CDT 11:23 PM CDT
Moon 4:59 PM CDT (8/9) 1:26 AM CDT (8/9)
Length of Visible Light 15h 50m
Length of Day
14h 39m
Waxing Gibbous, 70% of the Moon is Illuminated
Aug 9
Waxing Gibbous
Aug 15
Full
Aug 23
Last Quarter
Aug 30
New
Sep 5
First Quarter

Hourly Weather History & Observations

Time (CDT) Temp. Heat Index Dew Point Humidity Pressure Visibility Wind Dir Wind Speed Gust Speed Precip Events Conditions
12:56 AM 55.4 °F - 48.9 °F 79% 29.98 in 10.0 mi Calm Calm - N/A   Clear
1:56 AM 55.0 °F - 48.6 °F 79% 29.97 in 10.0 mi Calm Calm - N/A   Clear
2:56 AM 52.5 °F - 48.4 °F 86% 29.96 in 10.0 mi Calm Calm - N/A   Clear
3:56 AM 51.4 °F - 48.6 °F 90% 29.96 in 10.0 mi Calm Calm - N/A   Clear
4:56 AM 53.4 °F - 49.6 °F 87% 29.96 in 10.0 mi Calm Calm - N/A   Scattered Clouds
5:56 AM 52.9 °F - 49.6 °F 89% 29.95 in 10.0 mi Calm Calm - N/A   Clear
6:56 AM 52.9 °F - 49.6 °F 89% 29.94 in 10.0 mi Calm Calm - 0.00 in   Clear
7:56 AM 56.8 °F - 52.0 °F 84% 29.94 in 10.0 mi ESE 4.6 mph - 0.00 in   Clear
8:56 AM 62.6 °F - 53.8 °F 73% 29.91 in 10.0 mi Calm Calm - N/A   Clear
12:56 PM 76.5 °F - 60.6 °F 58% 29.89 in 10.0 mi SSE 9.2 mph - N/A   Partly Cloudy
1:56 PM 78.3 °F - 61.7 °F 57% 29.89 in 10.0 mi South 9.2 mph - N/A   Clear
2:56 PM 80.4 °F 81.6 °F 62.2 °F 54% 29.88 in 10.0 mi South 5.8 mph - N/A   Partly Cloudy
3:56 PM 80.1 °F 81.2 °F 61.9 °F 54% 29.87 in 10.0 mi South 8.1 mph - N/A   Partly Cloudy
4:56 PM - - - N/A% - 10.0 mi South 9.2 mph - N/A   Unknown
5:56 PM 79.0 °F - 60.3 °F 53% 29.86 in 10.0 mi South 8.1 mph - N/A   Clear
6:56 PM 77.0 °F - 62.1 °F 60% 29.86 in 10.0 mi South 6.9 mph - N/A   Clear
7:56 PM 76.8 °F - 63.7 °F 64% 29.86 in 10.0 mi South 5.8 mph - N/A   Clear
8:56 PM 71.8 °F - 63.9 °F 76% 29.86 in 10.0 mi Calm Calm - N/A   Clear
9:56 PM 67.3 °F - 62.2 °F 84% 29.86 in 10.0 mi SSE 3.5 mph - N/A   Clear
10:56 PM 63.7 °F - 60.4 °F 89% 29.88 in 10.0 mi Calm Calm - N/A   Clear
11:56 PM 61.5 °F - 59.2 °F 92% 29.90 in 10.0 mi Calm Calm - N/A   Clear